Location: Altamira
(10.5079°N, 66.8544°W)
Time: 08:57:14
(UTC+00:00)

Cosmos 1553 Rocket - Pass Details

Date: 08 December 2021
Orbit: 942 x 1007 km, 82.9° (Epoch: 24 January)

Event Time Altitude Azimuth Distance (km) Brightness Sun altitude
Rises 23:40:54 0° 187° (S) 3,699 7.4 -22.7°
Reaches altitude 10° 23:43:27 10° 188° (S) 2,742 6.7 -23.3°
Maximum altitude 23:49:44 76° 274° (W) 1,006 4.1 -24.7°
Enters shadow 23:54:34 17° 357° (N) 2,209 5.7 -25.8°
